Theta_e
318 316 317 317 319 320 320 318 320 323 324 320 324 323 323 321 321 322 324 322 322 320 319 320 323 320 319 317 316 315 316 318 314 316 317 315 315 317 317 319 318 316 313
320 319 320 318 316 318 319 319 320 322 323 321 324 321 321 321 321 322 323 323 323 323 324 320 322 319 312 315 323 323 321 319 318 321 321 321 321 319 314 314 311 308 309
320 319 319 318 317 317 317 319 319 320 321 320 321 322 322 322 322 322 321 322 322 322 322 322 322 323 321 320 320 320 321 321 319 321 315 314 310 310 310 307 307 308 308
320 319 319 317 317 317 317 317 318 319 320 320 320 322 321 321 321 321 321 321 321 321 321 321 320 321 321 320 319 319 317 321 322 319 312 309 309 308 308 307 306 305 301
320 320 319 315 316 317 318 317 316 316 318 319 319 320 320 321 321 321 321 320 320 318 316 317 318 316 317 318 319 318 315 322 318 316 311 309 307 305 304 304 304 302 301
321 322 319 315 315 316 317 317 315 314 315 317 318 318 318 318 318 317 316 315 314 312 310 310 311 311 309 306 313 314 314 316 316 313 309 308 304 301 301 303 300 300 303
322 323 321 317 314 316 316 316 315 314 313 313 315 316 315 315 314 311 309 308 307 305 304 302 301 300 299 302 308 313 312 314 315 316 312 308 303 298 300 301 299 300 300
322 323 322 320 315 314 315 315 315 315 314 314 313 314 314 316 316 313 309 304 300 299 299 299 299 298 298 299 301 304 309 309 309 309 308 305 298 296 298 299 298 299 301
323 323 323 322 318 314 315 314 314 312 312 311 312 313 314 315 315 314 312 309 306 304 304 303 302 301 299 297 297 298 301 304 303 299 297 295 294 295 297 298 298 299 298
323 323 322 323 319 315 314 314 314 313 312 309 307 311 312 312 313 312 312 311 308 307 307 307 306 304 304 301 298 297 297 298 297 295 294 294 294 295 297 298 297 298 298
322 322 323 324 322 317 316 315 315 315 314 313 309 306 306 307 308 309 310 310 308 307 307 307 307 306 304 303 300 296 296 296 295 294 293 294 294 295 294 295 295 295 297
323 324 324 323 324 321 319 319 317 316 316 315 315 313 310 307 304 305 307 308 307 307 306 306 305 305 305 303 302 300 297 294 293 293 293 294 295 296 297 298 297 296 296
323 324 324 324 324 325 323 322 321 318 316 316 316 316 315 315 313 310 304 305 306 308 307 307 306 305 303 302 300 301 301 300 297 294 295 297 297 298 298 299 298 297 297
322 322 324 324 325 326 325 323 323 322 320 318 317 317 316 315 315 315 315 312 304 304 307 309 309 308 305 302 301 299 299 301 301 302 300 299 299 300 300 301 299 298 297
321 321 320 322 324 325 325 325 324 322 321 321 320 319 318 317 317 317 316 316 316 313 304 305 308 307 306 303 300 298 297 299 301 302 301 300 299 300 300 300 298 298 297
320 320 320 319 322 324 325 325 325 323 323 322 322 322 322 320 320 320 320 320 319 317 314 305 303 304 305 305 303 300 297 296 298 301 300 299 298 298 298 299 300 297 297
320 320 320 320 321 323 325 325 325 326 326 326 325 324 324 323 323 323 323 320 318 318 315 310 305 302 301 301 302 301 299 297 295 296 297 297 297 297 298 299 298 297 294
322 322 322 322 323 325 325 326 326 326 326 327 328 329 328 326 324 322 323 320 317 313 313 313 309 306 304 302 300 300 299 296 294 292 292 293 297 298 299 299 297 296 294
322 323 323 325 326 328 327 328 328 328 328 329 330 330 329 328 329 329 328 324 316 312 309 310 312 310 305 303 301 299 298 297 295 293 292 293 297 298 298 298 299 295 294
325 324 324 324 325 327 329 328 328 329 329 328 327 324 324 325 322 324 325 318 317 317 315 311 308 305 303 302 301 300 298 296 295 294 294 294 296 297 298 299 297 293 294
326 327 326 326 326 326 326 325 324 324 325 325 325 325 323 322 322 320 317 315 312 311 309 306 304 303 301 300 300 299 298 297 297 296 295 296 297 298 299 299 296 294 294
326 327 327 326 324 323 321 319 318 317 316 317 315 311 311 313 312 310 308 307 306 306 305 304 303 302 301 300 299 299 299 299 298 297 296 297 298 299 299 297 296 295 293
325 324 324 324 324 322 321 321 320 320 319 316 309 307 308 308 307 307 306 306 305 305 304 302 302 302 301 301 300 298 298 298 299 298 298 298 299 298 298 296 295 294 293
322 323 321 321 322 322 321 317 316 316 312 309 307 308 308 308 307 306 305 305 305 304 304 304 301 300 300 300 299 299 299 299 299 298 298 298 298 297 297 296 294 293 292
323 319 318 316 314 313 312 312 311 311 310 310 310 309 307 305 304 304 304 304 304 303 301 301 300 299 298 298 298 296 296 296 295 296 296 296 296 295 296 295 293 292 292
318 315 312 311 310 308 307 306 305 304 303 303 303 303 302 302 301 300 300 300 300 299 299 299 299 299 298 297 296 295 295 295 295 295 295 295 295 294 292 292 292 292 292
Wind_Speed
16 15 15 15 17 18 16 16 17 18 19 20 21 22 22 24 27 32 33 28 25 24 20 19 21 17 16 17 18 11 12 7 13 6 7 11 6 4 7 5 6 5 6
20 17 15 14 15 17 17 16 17 17 16 17 19 21 21 19 21 25 27 29 29 29 26 24 23 19 20 12 11 10 14 11 15 11 15 14 13 15 14 9 10 9 10
25 20 16 14 14 16 16 17 16 15 16 17 17 18 18 20 22 21 20 20 20 20 21 22 22 22 20 17 15 15 13 12 14 18 20 18 15 15 14 12 10 12 12
27 23 20 16 16 15 15 17 17 17 17 18 19 21 22 18 17 16 15 15 15 13 12 12 13 12 13 11 12 11 10 11 22 26 22 16 11 8 7 11 12 12 11
28 25 21 19 19 17 16 18 18 17 18 17 18 17 15 13 13 12 10 10 11 10 9 9 9 8 7 7 6 9 12 19 24 22 16 10 8 7 7 6 7 11 10
29 25 23 22 21 18 20 19 18 18 17 16 15 14 13 10 8 7 8 10 11 10 11 10 10 8 8 9 10 11 11 16 22 17 13 15 13 11 10 8 8 8 5
29 27 25 24 22 19 21 21 21 20 19 18 18 17 15 12 10 9 10 12 13 13 13 13 13 11 9 10 12 13 13 16 18 21 21 19 16 15 14 12 10 9 6
31 30 28 26 23 23 21 22 21 20 19 19 19 18 17 16 14 13 13 14 14 13 13 13 13 14 14 13 14 15 17 19 19 18 16 16 14 15 14 12 11 7 7
34 33 31 30 26 27 24 23 22 21 20 19 20 21 20 19 17 16 16 15 16 16 16 16 15 15 15 16 16 16 16 15 13 11 10 10 10 10 11 12 11 9 4
33 36 34 32 30 29 28 27 24 23 21 20 21 23 22 21 22 21 21 20 20 21 20 21 21 18 17 18 17 17 16 15 14 14 13 10 9 9 8 7 7 7 4
40 39 37 36 33 31 29 28 26 23 21 20 21 22 23 24 24 26 26 26 26 26 26 25 25 23 21 20 19 19 17 15 16 14 13 13 12 10 9 7 6 6 7
40 39 40 39 37 35 34 31 28 26 25 24 23 23 24 25 27 29 30 30 28 29 30 28 25 23 23 23 23 21 18 15 17 17 16 16 15 15 13 11 8 5 7
39 39 39 43 41 39 38 36 34 32 31 30 29 29 30 31 31 32 33 34 33 32 31 29 26 24 23 24 25 24 22 22 20 22 22 21 20 18 17 17 14 10 13
39 37 42 42 39 38 41 41 40 39 36 34 33 35 38 37 37 37 38 37 37 38 37 33 30 27 27 28 29 31 31 29 29 29 28 25 23 23 24 24 21 11 23
40 37 35 39 42 38 42 44 42 45 45 45 44 44 35 38 43 42 43 43 43 43 41 40 36 31 28 29 31 32 33 33 31 29 29 27 25 23 25 23 16 13 23
37 36 35 31 36 36 37 36 48 50 50 50 46 44 44 44 42 40 39 37 37 38 37 41 41 41 38 37 37 38 36 36 36 32 31 29 28 25 26 21 14 15 27
37 35 34 33 33 32 32 32 31 42 46 43 49 50 47 43 35 40 38 31 30 29 34 29 33 33 38 39 39 39 41 40 38 37 35 32 28 26 23 16 16 16 30
39 38 40 39 31 29 31 32 33 32 30 40 42 42 45 46 38 18 16 22 28 31 38 33 32 34 39 37 36 39 39 37 35 36 34 32 28 28 20 17 17 21 28
36 34 36 37 38 36 34 31 30 27 21 16 16 19 21 24 27 36 30 20 29 31 33 33 35 38 35 30 30 32 33 34 34 34 33 32 33 32 27 25 27 29 27
40 39 41 37 34 33 32 29 23 22 21 20 18 16 11 8 10 14 22 21 24 31 31 29 29 28 27 25 25 27 28 29 31 31 32 34 37 32 23 18 25 28 27
30 32 27 20 14 15 15 13 15 14 10 7 8 7 5 7 2 12 15 16 20 23 21 19 18 17 19 20 20 23 25 27 28 31 33 33 33 25 21 21 27 23 24
27 22 22 22 20 19 25 21 21 19 14 13 12 12 9 12 11 9 9 8 6 9 12 12 12 12 13 15 19 22 23 25 27 29 31 32 27 22 26 24 26 25 23
29 32 34 33 30 28 23 19 17 17 16 14 10 13 16 15 12 10 8 8 8 8 8 8 10 13 13 13 16 16 16 18 20 23 27 27 27 27 27 25 25 22 21
12 28 25 28 27 24 20 18 21 25 24 18 11 15 17 15 13 13 12 10 11 15 13 10 9 11 11 14 17 17 19 21 23 24 26 28 29 29 24 23 24 23 24
17 12 14 21 29 34 34 34 32 29 26 23 21 19 19 22 19 16 13 11 10 10 11 11 10 10 10 11 14 14 16 18 19 19 19 19 18 16 17 22 20 19 20
29 29 24 28 31 32 36 35 32 31 31 30 30 28 25 22 20 20 20 18 16 13 12 12 12 13 14 14 14 13 14 13 13 10 8 10 15 12 9 10 12 12 13
Wind_Direction
143 139 137 134 133 128 119 122 121 106 105 117 108 119 112 108 108 109 111 123 122 121 132 130 141 144 152 149 160 181 158 153 141 150 144 168 183 218 161 141 123 133 129
158 151 146 142 145 139 134 130 131 126 118 112 129 124 119 119 116 116 113 111 113 111 112 118 118 132 141 147 140 124 184 172 154 130 130 128 126 128 125 126 119 121 128
162 157 156 153 152 148 142 143 142 139 136 119 126 134 131 123 120 121 123 123 121 118 119 122 123 130 130 130 129 118 121 174 188 151 133 131 129 128 131 120 109 113 123
163 159 159 161 159 152 150 152 153 149 146 138 132 135 136 139 140 138 138 135 133 132 135 138 134 135 141 143 141 147 145 156 165 152 143 143 145 131 144 139 125 138 130
165 162 163 163 162 155 151 152 154 156 154 151 145 139 139 150 152 155 155 154 155 149 146 154 161 166 175 189 192 173 164 156 156 155 152 160 166 183 201 180 165 159 133
170 168 167 165 167 162 160 158 161 157 157 160 159 160 157 162 170 186 192 181 173 171 164 162 167 174 183 190 191 186 192 185 169 164 173 179 190 196 184 181 182 176 191
175 172 172 171 171 165 165 162 158 158 160 163 164 168 170 174 170 174 174 174 173 174 175 174 172 174 183 186 190 190 186 197 211 202 197 201 197 197 188 179 179 175 184
179 178 177 176 175 174 168 170 169 171 173 175 174 175 177 177 177 179 176 176 176 179 183 184 187 186 188 193 193 196 197 197 204 213 220 216 206 192 189 191 188 186 167
181 182 184 181 177 177 178 175 177 178 181 185 185 182 183 183 188 194 192 192 194 196 199 202 203 204 202 201 204 201 198 200 201 201 202 196 189 189 190 193 187 184 201
185 187 188 188 183 182 185 185 186 188 186 185 186 191 193 196 199 204 206 207 208 212 216 222 222 225 226 219 216 217 211 206 201 194 190 182 182 192 202 213 216 209 207
191 191 191 193 192 191 189 191 193 193 193 195 198 199 205 210 212 212 213 216 221 220 224 226 225 226 229 231 227 231 234 229 216 210 206 205 206 214 219 218 216 231 227
192 192 193 198 199 197 194 195 198 197 201 206 210 215 221 223 225 227 225 228 232 231 235 238 238 236 233 233 232 235 236 238 227 219 218 220 223 225 228 229 234 251 242
191 193 195 201 202 204 202 200 200 203 207 213 217 224 231 233 234 235 236 236 237 239 244 247 247 247 246 238 234 235 235 233 230 226 229 232 233 236 240 235 227 234 244
191 189 194 200 202 205 208 209 206 207 210 216 219 226 235 239 240 241 239 238 239 242 244 248 250 248 242 241 237 232 232 232 232 234 236 241 241 242 248 245 233 246 252
197 199 195 196 202 202 208 211 215 220 220 219 226 231 228 236 247 249 247 242 240 242 243 243 244 244 243 239 238 238 236 233 233 233 235 240 240 254 250 214 204 242 245
195 199 204 202 202 202 207 213 226 230 232 232 238 240 243 250 256 259 262 266 263 256 244 242 244 245 244 241 240 240 236 234 235 235 233 236 240 248 205 191 206 237 247
194 198 203 205 209 202 206 212 221 230 233 241 244 243 248 254 260 262 269 269 262 254 245 249 251 251 252 249 249 245 243 241 240 239 239 237 238 209 201 207 206 220 245
197 198 204 209 209 207 208 211 215 223 228 236 240 244 245 248 252 271 280 275 254 241 241 238 248 256 258 258 257 252 250 248 244 244 243 235 220 203 200 213 219 229 236
197 201 203 211 218 217 213 214 219 224 231 241 247 258 263 264 262 260 252 277 261 255 249 250 253 257 261 266 267 264 257 255 254 250 244 234 218 214 223 242 255 236 239
200 203 210 213 219 218 217 211 211 214 223 229 231 227 210 226 264 264 244 246 255 258 260 258 263 265 271 275 277 269 263 259 255 250 244 232 221 221 226 253 224 242 230
194 197 194 187 173 155 140 128 129 125 122 133 170 195 213 181 191 251 256 266 265 266 275 280 284 289 285 278 270 267 267 268 264 254 240 227 221 221 237 257 231 266 246
175 155 152 140 137 131 111 108 113 106 101 99 95 98 81 80 77 56 39 19 341 302 296 298 295 295 289 286 282 280 277 276 269 254 239 226 223 241 257 245 235 258 244
136 132 124 120 117 115 108 104 103 89 90 84 112 101 89 80 72 68 58 37 13 349 316 302 311 312 311 324 320 300 293 289 283 261 236 235 240 252 251 248 227 249 237
139 129 134 139 145 138 135 134 115 113 134 146 147 108 97 92 85 78 68 54 42 28 19 8 339 329 327 334 334 323 314 300 290 286 279 268 253 240 236 237 237 241 253
130 109 140 142 117 111 110 111 115 120 119 113 104 96 100 92 82 72 62 55 47 41 38 31 21 9 358 352 344 336 333 325 316 304 285 262 253 237 258 272 247 258 229
137 134 121 111 109 112 112 113 112 109 105 102 96 90 83 76 71 67 64 62 60 55 44 32 19 8 1 357 352 345 338 334 332 315 279 264 269 268 272 278 255 252 271